Location: Oshawa
(43.9000°N, 78.8670°W)
Time: 22:10:14
(UTC-04:00)

Daily predictions for brighter satellites

Satellite Brightness Start Highest point End
(mag) Time Altitude Azimuth Time Altitude Azimuth Time Altitude Azimuth
Cosmos 1605 Rocket 4.1 20:12:39 10° S 20:18:50 60° E 20:24:58 10° NNE
Cosmos 2298 Rocket 4.3 20:14:43 10° NNW 20:19:57 53° ENE 20:25:08 10° SE
BREEZE-M DEB (TANK) 3.8 20:17:19 10° WNW 20:20:05 44° NNE 20:27:06 10° E
Cosmos 1626 Rocket 3.8 20:16:07 10° N 20:20:23 48° ENE 20:24:36 10° SSE
Cosmos 220 Rocket 3.9 20:17:42 10° NNW 20:21:56 77° ENE 20:26:08 10° SSE
Cosmos 1892 Rocket 4.5 20:18:54 10° NNW 20:23:17 55° W 20:27:40 10° S
Meteor 1-5 Rocket 4.3 20:19:36 10° SSW 20:24:58 81° W 20:30:34 10° N
USA 186 2.4 20:23:16 10° SE 20:25:53 29° ENE 20:28:20 10° N
Cosmos 1455 Rocket 3.2 20:22:03 10° S 20:26:23 84° W 20:30:47 10° N
ALOS 2.3 20:22:27 10° SSE 20:27:03 62° ENE 20:31:41 10° N
OAO 2 Rocket 4.5 20:24:43 10° WSW 20:29:00 30° S 20:33:23 10° ESE
Cosmos 1515 4.1 20:25:25 10° N 20:29:06 41° ENE 20:32:43 10° SSE
Cosmos 1602 Rocket 3.6 20:26:40 10° N 20:31:06 64° E 20:35:28 10° SSE
CZ-4 DEB 4.5 20:30:41 10° ESE 20:32:52 17° ENE 20:35:02 10° NNE
ERS-1 Rocket 4.0 20:29:29 10° ESE 20:33:42 28° ENE 20:37:55 10° N
Cosmos 1346 Rocket 4.0 20:32:23 10° NNW 20:36:12 46° W 20:40:02 10° S
Helios 1B rocket 3.3 20:32:26 10° N 20:36:28 55° WNW 20:40:29 10° SSW
Meteor 1-12 Rocket 4.3 20:30:49 10° S 20:36:33 71° E 20:42:25 10° NNE
Cosmos 2150 Rocket 3.9 20:39:46 10° NNW 20:44:56 76° ENE 20:50:07 10° SSE
Cosmos 1763 Rocket 4.3 20:40:59 10° SSE 20:45:14 28° E 20:49:30 10° NE
Cosmos 2061 Rocket 4.5 20:41:07 10° SSE 20:46:51 39° E 20:52:34 10° NNE
Cosmos 1697 Rocket 2.7 20:41:53 10° S 20:47:27 63° ESE 20:53:02 10° NNE
Tiangong 1 1.7 20:44:29 10° W 20:47:28 43° SSW 20:49:40 16° SE
Cosmos 2123 Rocket 4.5 20:42:08 10° NNW 20:48:15 64° W 20:54:20 10° S
Cosmos 1939 Rocket 4.0 20:47:20 13° ESE 20:50:13 27° ENE 20:53:46 10° N
Cosmos 1743 3.6 20:46:52 10° SSE 20:50:19 30° E 20:53:46 10° NNE
Cosmos 1066 Rocket 4.3 20:47:48 10° N 20:53:30 67° ENE 20:59:16 10° SSE
Cosmos 1459 Rocket 4.2 20:48:17 10° SSE 20:53:59 45° E 20:59:46 10° NNE
Cosmos 1898 Rocket 3.6 20:49:56 10° NNW 20:55:16 84° WSW 21:00:30 10° SSE
SL-16 R/B 3.5 21:00:04 16° ESE 21:01:49 19° E 21:05:36 10° ENE
Cosmos 1606 Rocket 4.2 21:01:23 10° SSE 21:05:18 35° E 21:09:21 10° NNE
Cosmos 2058 Rocket 4.3 21:03:44 19° ESE 21:05:22 23° E 21:08:56 10° NE
Cosmos 468 Rocket 3.9 21:00:52 10° SSW 21:05:59 88° ESE 21:11:10 10° NNE
BREEZE-M DEB (TANK) 4.2 20:50:01 10° SW 21:07:40 63° SSE 21:12:09 13° ENE
BREEZE-M DEB (TANK) 4.4 21:04:21 10° WSW 21:08:43 85° SSE 21:25:55 10° ENE
Cosmos 841 Rocket 3.8 21:05:30 10° S 21:10:22 41° ESE 21:15:15 10° NE
ASTEX 1 4.4 21:06:27 10° NNE 21:10:38 26° E 21:12:21 21° ESE
Cosmos 1980 Rocket 2.2 21:06:20 10° S 21:11:54 61° ESE 21:17:32 10° NNE
RESURS DK-1 2.8 21:10:37 10° NNW 21:14:44 62° WSW 21:18:10 14° SSE
Resurs 01 Rocket 4.4 21:14:33 10° SW 21:17:43 19° W 21:20:55 10° NW
H-2A R/B 4.1 21:15:23 10° S 21:19:05 41° W 21:22:51 10° NNW
Cosmos 1814 Rocket 4.1 21:14:35 10° SSW 21:19:56 84° WNW 21:25:15 10° NNE
Cosmos 1842 3.8 21:23:21 10° N 21:27:03 39° ENE 21:27:48 35° ESE
Cosmos 1726 Rocket 3.7 21:24:43 20° SSE 21:27:30 50° E 21:31:47 10° NNE
Cosmos 1666 3.1 21:29:44 38° ESE 21:30:06 39° E 21:33:40 10° NNE
YAOGAN 6 3.7 21:30:59 28° ENE 21:31:05 28° ENE 21:34:18 10° N
Cosmos 2263 Rocket 3.3 21:29:53 10° N 21:34:42 29° NE 21:36:35 24° E
Lacrosse 5 3.1 21:34:15 10° WNW 21:38:48 34° SW 21:41:56 17° S
Cosmos 1802 Rocket 4.0 21:34:02 10° S 21:40:27 88° E 21:46:56 10° N
Cosmos 1825 Rocket 3.8 21:36:51 10° NNW 21:41:14 69° W 21:44:12 20° S
Cosmos 2016 Rocket 3.9 21:39:05 10° S 21:45:12 81° E 21:51:27 10° N
Cosmos 1340 3.1 21:42:01 10° NNW 21:45:47 61° W 21:47:32 29° SSW
Cosmos 2322 Rocket 2.4 21:43:34 23° SSE 21:46:43 45° ESE 21:52:04 10° NE
SPOT 5 2.9 21:47:47 40° SE 21:49:23 64° ENE 21:54:04 10° N
SWAS 4.3 21:47:30 10° SSW 21:51:48 76° ESE 21:56:09 10° NNE
Envisat 3.1 21:49:39 25° S 21:52:37 76° WSW 21:57:43 10° NNW
Cosmos 1953 Rocket 3.8 21:49:06 10° NNW 21:53:33 70° W 21:55:42 30° S
MetOp-A 4.1 21:52:04 39° SE 21:53:58 66° ENE 21:59:17 10° N
Cosmos 2228 3.1 21:55:49 53° E 21:55:49 53° E 21:59:53 10° NNE
H-2A R/B 1.8 21:55:01 54° SSE 21:55:56 87° ENE 22:00:07 10° NNW
Nimbus 7 Rocket 4.4 21:50:21 10° NNE 21:56:26 70° ESE 22:01:07 17° S
Cosmos 2173 Rocket 4.5 21:50:49 10° SSW 21:57:05 62° W 22:03:22 10° N
Meteor 2-9 Rocket 4.0 21:57:29 25° S 22:00:47 78° E 22:06:10 10° NNE
Meteor 2-5 Rocket 4.4 21:56:29 10° N 22:01:54 36° ENE 22:02:35 35° E
Cosmos 1375 Rocket 4.5 21:55:35 10° SSW 22:02:03 63° ESE 22:08:33 10° NE
Terra 3.5 22:03:43 20° ENE 22:03:43 20° ENE 22:06:49 10° NNE
Meteor 1-15 Rocket 4.2 22:02:12 28° S 22:05:28 75° E 22:11:20 10° NNE
Cosmos 2360 4.4 22:00:45 10° SSW 22:06:27 72° WNW 22:12:13 10° NNE
Cosmos 1758 Rocket 4.2 22:07:33 10° NNW 22:11:46 50° W 22:13:13 35° SSW
ERS-1 Rocket 4.2 22:08:47 16° SSW 22:12:18 38° W 22:17:00 10° NNW
Cosmos 1864 Rocket 4.3 22:10:22 26° S 22:14:00 88° E 22:20:10 10° N
Cosmos 405 Rocket 3.6 22:13:16 10° N 22:15:52 40° NNE 22:15:52 40° NNE
BREEZE-M DEB (TANK) 2.9 22:15:27 10° WNW 22:17:25 46° WSW 22:17:25 46° WSW
BREEZE-M DEB (TANK) 4.1 22:11:43 10° SW 22:24:44 63° SSE 22:25:52 52° ESE
H-2A R/B 2.7 22:25:29 37° NE 22:25:29 37° NE 22:29:31 10° N
deb Chang Zheng 4 4.2 22:20:41 10° N 22:25:03 57° WNW 22:26:47 33° SW
Meteor 2-17 Rocket 4.3 22:24:21 56° SSE 22:25:37 74° E 22:31:40 10° NNE
Tsikada Rocket 4.2 22:21:22 10° NNW 22:27:46 71° W 22:30:24 37° SSW
Cosmos 2278 Rocket 4.5 22:26:11 10° NNE 22:28:04 12° NE 22:29:36 10° NE
Cosmos 783 Rocket 4.3 22:31:33 81° SE 22:31:38 81° ESE 22:36:56 10° NNE
SL-08 RB Rocket 3.9 22:32:11 64° NNE 22:32:11 64° NNE 22:36:18 10° N
USA 215 3.8 22:37:03 37° ENE 22:39:12 50° NNE 22:45:29 10° NW
ARGOS 3.0 22:39:04 77° SSW 22:39:27 84° WSW 22:44:53 10° NNW
Cosmos 1125 Rocket 4.3 22:38:33 10° NNW 22:43:28 43° WSW 22:44:16 40° SW
SPOT 1/Viking Rocket 3.6 22:44:10 68° SW 22:44:26 70° WSW 22:49:40 10° NNW
NOAA 11 4.2 22:44:17 70° SW 22:44:43 75° WSW 22:50:13 10° NNW
SL-16 R/B 2.4 22:41:42 23° SW 22:45:19 67° WNW 22:51:00 10° NNE
Cosmos 1844 Rocket 4.1 22:41:05 10° N 22:45:36 25° NE 22:45:36 25° NE
Cosmos 2360 Rocket 3.2 22:58:32 35° NE 22:58:32 35° NE 23:01:50 10° NNE
Cosmos 1980 Rocket 4.4 22:51:47 10° WSW 22:56:20 24° NW 23:00:56 10° N
Cosmos 540 Rocket 3.9 22:55:48 54° W 22:56:23 58° WNW 23:01:29 10° NNE
Cosmos 2233 Rocket 4.4 23:06:51 45° SW 23:08:25 57° WNW 23:14:35 10° N
Cosmos 2263 Rocket 2.9 23:13:31 10° NW 23:18:16 45° W 23:18:16 45° W
Cosmos 371 Rocket 4.4 23:20:21 41° NNW 23:20:21 41° NNW 23:24:09 10° N
Cosmos 2322 Rocket 3.9 23:26:05 10° WSW 23:30:57 30° NW 23:35:51 10° N
Cosmos 2034 Rocket 4.4 23:38:05 56° NNE 23:38:05 56° NNE 23:42:51 10° N
Terra 3.4 23:42:36 32° NW 23:42:36 32° NW 23:45:24 10° NNW
ATLAS 3B R/B 4.4 23:52:25 22° ENE 23:52:25 22° ENE 23:55:08 10° NE
